Presure
143 84 168 126 99 81 100 101 97 85 99 89 158 104 181 164 159 145 121 113 99 97 83 85 107 88 110 113 90 100 99 138 179 121 101 169 144 136 118 119 114 96 116
123 87 164 77 83 80 88 180 95 85 91 129 99 104 96 95 153 96 125 102 85 85 89 85 95 95 89 83 89 89 94 100 106 101 103 103 170 95 107 98 99 98 100
166 110 95 99 85 88 77 109 87 97 92 124 88 94 89 144 95 180 123 159 154 165 94 93 90 90 94 95 95 93 95 106 93 88 94 100 99 104 105 95 101 96 98
162 164 164 146 88 92 85 85 92 92 96 109 126 95 98 91 112 88 102 161 154 95 89 116 171 158 94 98 101 95 138 131 95 94 92 112 101 102 97 105 97 98 100
164 167 166 168 162 150 83 82 90 87 95 84 92 84 87 173 87 100 83 87 101 158 109 155 97 157 124 106 94 96 98 104 105 142 134 101 91 124 122 99 104 97 107
89 98 169 165 175 176 164 115 82 109 145 80 95 92 97 96 164 90 95 95 90 95 92 85 88 86 91 89 90 89 90 85 92 89 91 92 98 146 140 95 97 100 96
151 115 89 93 167 168 169 111 134 100 83 97 169 140 154 89 133 95 80 92 91 93 95 101 121 101 94 154 166 158 111 151 113 101 101 131 158 155 118 103 104 106 105
166 170 128 84 86 124 168 148 127 175 164 84 149 129 190 141 157 97 95 110 103 93 101 98 127 96 95 78 95 122 114 159 160 152 159 155 130 125 148 153 158 154 160
175 174 175 173 162 88 91 106 173 172 175 173 82 88 168 170 155 173 130 91 93 84 84 137 104 144 144 88 91 156 162 147 144 95 162 153 151 154 158 161 119 112 122
175 174 174 147 177 163 166 120 172 180 86 188 183 182 184 125 124 89 83 125 83 84 86 83 89 94 82 157 135 125 118 99 168 93 94 98 93 92 90 167 96 124 163
183 184 185 152 184 206 227 228 231 134 89 149 94 92 172 190 141 119 184 190 173 112 95 98 123 130 124 106 120 115 95 97 95 162 118 113 157 176 117 140 146 155 167
216 214 215 214 211 215 217 215 224 221 230 221 91 154 242 96 96 194 171 187 187 176 83 148 132 134 106 130 126 129 128 123 121 126 129 132 147 125 124 122 137 180 189
186 192 196 197 200 202 203 203 206 210 221 219 237 235 91 90 93 115 159 108 132 129 179 180 137 139 159 129 126 123 125 125 140 126 144 136 156 161 151 134 128 156 128
163 170 175 175 174 179 187 191 199 203 144 133 141 222 231 161 242 225 250 96 119 102 98 100 105 121 145 145 170 120 124 120 127 129 141 121 124 158 160 140 132 150 152
224 239 190 214 201 191 190 175 181 189 196 200 206 171 172 193 225 227 142 229 182 182 186 180 189 97 109 116 104 116 117 121 122 125 118 118 121 171 161 153 171 162 168
203 203 225 219 220 233 213 200 180 181 177 191 198 203 160 220 219 227 184 160 150 151 165 180 180 187 186 186 166 144 89 90 171 118 105 95 91 88 88 86 88 140 171
206 199 202 199 202 213 225 230 251 197 185 180 184 194 195 204 211 145 147 152 149 143 153 156 160 178 187 177 97 172 166 112 93 94 86 103 142 80 87 91 161 97 95
188 193 215 225 193 192 197 213 223 232 236 187 188 185 185 192 199 205 209 144 133 169 228 140 152 157 178 151 184 191 171 171 171 171 170 97 159 84 183 168 155 154 162
184 235 224 224 246 202 233 191 207 203 219 237 214 195 184 184 192 196 204 208 209 212 216 213 127 185 181 158 162 165 152 185 182 178 171 171 173 173 171 167 164 172 157
215 206 219 196 201 233 212 200 240 244 209 219 229 240 227 196 185 186 196 202 210 205 206 214 162 194 155 180 188 188 187 171 166 149 178 178 177 177 156 162 176 166 153
211 205 225 214 180 222 223 248 253 239 205 208 208 188 205 226 212 201 183 189 200 208 208 205 210 216 168 234 170 169 186 188 190 163 167 173 176 180 184 177 159 159 181
206 205 205 205 218 227 227 213 209 229 261 220 195 270 240 201 203 221 183 200 185 195 202 208 210 205 214 221 176 164 164 170 172 179 180 175 188 172 169 171 175 169 166
209 212 210 211 219 225 207 189 200 221 219 251 231 217 227 277 201 195 232 230 223 193 186 200 202 207 207 205 214 218 172 173 173 181 173 179 181 172 178 180 176 183 177
209 215 196 204 205 207 206 212 211 183 191 224 220 219 223 252 220 263 208 206 250 231 220 184 190 202 203 204 208 208 212 213 215 218 182 181 176 174 175 179 187 189 189
220 193 208 210 206 223 208 206 213 212 219 220 228 224 191 207 230 238 201 274 228 201 257 237 225 187 197 202 203 208 204 208 211 215 222 224 226 225 226 230 233 234 211
207 190 195 197 218 216 210 213 221 213 216 224 235 225 235 239 189 232 227 227 175 240 232 214 252 247 228 202 194 202 205 202 204 204 204 211 212 215 221 223 223 225 198
Wind_Speed
36 25 38 28 31 19 28 29 29 19 26 18 29 23 33 32 35 30 26 24 21 22 12 9 16 14 16 18 13 18 18 26 40 22 16 37 30 25 18 18 18 13 19
37 31 41 23 25 23 27 29 30 22 25 29 25 25 22 24 34 24 30 21 18 18 22 15 19 19 15 9 14 16 17 20 20 18 17 17 39 15 15 15 15 16 17
46 39 40 33 31 32 22 35 27 33 29 34 24 27 24 33 26 40 32 40 38 38 20 22 20 18 20 21 20 21 21 23 19 15 17 19 19 20 18 17 18 17 19
48 47 46 45 36 38 31 29 34 34 35 31 37 30 30 26 31 24 29 38 42 28 23 30 41 37 23 25 24 21 30 30 23 21 20 24 22 22 21 21 21 21 21
51 51 50 49 47 42 34 31 36 32 38 29 33 27 26 43 26 32 21 22 29 42 30 42 30 39 32 27 24 26 26 26 26 36 35 23 21 31 31 24 24 23 24
41 44 53 51 51 49 46 42 35 42 47 29 39 36 38 36 44 32 32 28 28 29 29 23 25 20 26 25 25 23 24 17 26 23 24 25 26 40 38 26 26 26 24
49 47 42 45 51 51 50 44 43 36 38 40 51 46 44 36 43 37 23 33 33 33 32 35 39 35 31 43 47 44 34 42 34 31 31 36 42 42 32 30 30 30 30
52 53 47 42 45 49 52 51 46 53 54 41 49 47 50 47 50 42 39 36 37 36 35 35 43 36 36 17 33 39 37 46 47 42 45 44 38 38 43 44 43 43 42
54 56 57 56 55 47 50 51 55 54 54 55 40 44 57 54 53 57 46 39 38 34 34 50 40 49 49 33 36 48 51 47 43 25 49 45 44 44 46 47 37 35 38
58 58 59 59 59 55 55 52 57 58 47 62 61 59 56 51 51 43 39 49 38 39 38 35 39 41 31 53 43 42 43 35 56 32 33 34 30 28 29 51 31 38 48
64 63 65 59 62 56 54 53 52 44 46 52 52 49 58 62 58 54 66 68 64 48 43 44 52 51 48 37 47 45 32 33 32 55 43 39 50 56 40 46 47 49 51
60 58 56 56 57 54 53 53 50 50 48 48 52 59 52 53 52 67 65 69 70 68 43 58 57 57 37 52 50 49 47 47 47 46 45 45 51 46 46 47 48 54 54
61 62 60 59 59 58 57 55 54 51 50 49 48 51 55 54 55 53 64 56 61 58 72 71 61 61 66 54 54 51 51 51 54 50 55 50 55 56 54 49 49 53 49
58 60 61 60 58 59 61 60 58 56 65 65 65 52 53 68 56 62 60 57 61 56 52 51 49 56 65 63 70 53 55 52 54 54 56 50 51 58 58 54 52 55 54
60 62 64 66 67 65 63 63 62 61 59 57 55 64 62 61 60 62 66 66 76 77 78 76 79 51 54 55 50 55 54 56 54 56 50 50 51 63 62 57 59 58 57
62 64 60 62 63 64 68 66 65 65 64 63 61 59 66 58 61 62 66 68 70 69 73 78 79 81 81 80 76 72 41 44 72 52 47 44 43 39 38 38 39 53 60
70 70 70 68 67 66 64 65 65 69 69 66 65 65 63 62 63 75 73 74 74 72 74 74 74 81 85 81 50 79 78 55 48 48 41 51 60 41 44 47 64 49 49
69 71 66 63 72 71 70 68 69 67 72 72 71 71 70 69 69 69 70 76 71 79 76 75 75 76 84 75 87 88 81 81 80 79 76 53 68 42 76 69 60 60 63
77 55 58 63 54 77 61 75 77 77 75 75 78 76 76 77 76 76 75 75 76 77 79 79 65 90 88 80 80 79 75 88 88 85 80 78 79 76 74 71 71 71 63
64 72 68 81 77 62 74 80 66 68 80 81 80 84 84 81 80 80 80 80 80 82 83 82 84 88 81 91 94 93 93 82 80 73 86 85 83 83 69 71 79 69 67
64 67 70 72 86 69 73 59 60 72 83 84 85 82 84 87 87 85 84 84 84 84 85 87 87 87 90 85 89 87 94 94 94 80 83 84 84 85 85 79 71 70 82
70 73 75 77 75 76 76 80 80 76 66 83 86 77 87 87 88 93 89 90 89 89 88 88 89 92 90 91 93 87 84 86 87 90 89 87 94 82 78 76 79 76 75
80 81 80 80 81 81 77 91 87 84 84 75 85 88 87 82 91 91 98 101 97 93 91 92 93 92 93 95 94 92 92 91 89 92 86 89 92 85 86 85 81 86 81
85 89 78 85 86 85 85 87 88 101 91 92 93 91 91 90 99 90 98 96 104 104 102 95 95 96 97 98 96 96 95 93 92 93 95 94 89 87 86 87 90 90 88
87 83 95 97 94 95 96 94 96 95 98 97 102 101 97 97 94 95 97 94 107 97 106 109 105 97 98 99 99 99 98 96 96 95 95 94 94 94 94 93 92 90 87
91 91 99 98 98 103 105 103 103 103 106 101 106 105 107 102 97 100 100 103 91 99 111 104 107 112 108 101 98 99 99 97 97 98 97 98 96 96 95 95 94 93 89
Wind_Direction
236 231 242 241 229 228 232 233 231 239 237 228 234 238 218 220 219 215 220 219 215 219 235 219 228 232 225 231 243 243 236 227 228 231 239 230 236 242 248 246 246 265 257
234 230 241 240 236 238 234 246 234 235 234 237 237 238 229 226 220 228 224 228 231 233 239 236 245 237 241 236 245 255 249 244 237 247 242 243 235 255 242 259 256 264 266
240 233 233 238 236 234 244 239 239 237 232 239 234 227 230 225 229 223 225 222 232 225 240 245 244 243 243 242 240 247 253 247 253 270 265 251 249 254 247 265 267 266 267
245 245 245 241 235 232 240 239 236 240 237 236 238 236 234 232 231 238 233 215 233 232 244 238 226 227 247 248 247 250 234 241 258 257 262 248 258 256 260 261 264 264 266
243 245 245 245 245 246 245 243 239 246 238 245 236 237 238 235 236 233 244 239 232 230 233 227 245 233 238 246 249 248 250 252 252 237 245 257 269 250 251 267 264 272 265
239 240 243 246 247 247 245 241 243 236 239 252 240 239 240 236 236 236 233 240 243 242 243 254 255 255 254 257 256 253 253 256 258 262 264 268 264 244 247 271 270 270 275
249 244 236 239 246 246 246 244 245 245 247 246 233 238 240 245 238 237 245 233 238 240 242 244 235 244 248 234 233 236 251 236 253 256 258 248 242 244 259 266 269 270 273
249 251 245 240 238 243 246 247 249 246 234 246 246 240 241 238 236 244 240 237 233 236 245 243 240 249 253 253 253 246 250 241 242 240 243 245 252 254 249 251 251 252 255
253 252 253 252 249 240 238 239 248 247 246 242 245 246 237 237 237 235 239 244 242 244 248 237 243 239 241 259 259 237 240 245 240 246 247 246 247 249 252 255 260 264 262
257 257 256 251 254 247 249 247 248 251 245 252 248 243 241 244 244 245 248 240 247 248 247 251 247 249 260 235 240 243 248 260 244 265 266 264 266 267 268 257 269 265 261
260 259 260 254 260 259 263 262 261 245 242 245 244 246 244 241 242 247 235 229 235 243 247 246 248 247 248 248 247 249 258 262 262 247 258 258 250 254 261 259 261 262 263
261 261 261 262 262 263 263 262 260 257 255 248 246 248 241 248 250 237 240 234 232 237 249 238 244 245 246 245 249 247 247 249 250 252 251 251 249 253 256 258 259 258 258
263 263 261 260 261 263 261 260 260 259 255 251 245 243 246 247 248 246 239 248 245 248 237 237 247 246 240 247 249 251 250 251 252 252 250 257 253 253 255 257 260 260 262
259 263 264 261 257 259 261 261 259 256 250 250 250 245 242 245 238 238 236 249 247 250 250 251 252 252 248 245 238 253 252 253 253 252 253 253 257 254 254 257 259 262 264
265 267 259 265 264 260 257 254 256 258 254 251 251 249 248 245 239 238 248 236 237 238 236 240 237 248 247 251 254 254 257 256 256 256 253 254 255 248 255 258 255 260 260
263 260 262 259 260 260 260 259 252 252 252 254 250 248 247 244 242 240 243 246 248 248 244 239 240 239 240 238 241 253 245 248 243 247 253 258 259 261 264 264 267 262 261
261 263 266 262 256 254 253 254 256 252 248 247 249 249 247 247 245 248 247 246 246 248 249 248 247 241 239 241 252 240 244 252 254 254 249 254 256 259 264 266 258 268 269
264 265 261 257 260 261 261 253 251 251 251 245 245 244 243 242 242 242 242 245 247 243 239 247 249 249 241 250 242 240 245 246 248 250 250 257 254 257 253 254 258 259 261
266 266 260 259 264 260 260 253 257 256 250 247 246 244 241 241 240 239 239 239 239 239 239 242 247 242 242 250 250 249 253 243 244 248 250 251 251 252 253 255 256 256 259
267 266 273 262 261 261 255 258 261 257 255 251 248 244 247 244 243 242 240 238 238 238 238 239 248 240 249 244 242 243 244 249 250 257 249 251 252 253 256 256 256 257 261
273 265 271 266 261 262 257 267 270 257 254 254 251 248 248 248 247 245 243 243 241 238 239 239 238 239 248 241 246 249 246 245 245 254 254 253 252 252 252 253 258 260 259
275 274 273 268 273 270 266 262 260 259 269 254 253 258 249 249 245 247 244 243 242 241 240 240 240 240 240 241 248 251 251 250 250 250 251 253 252 257 258 257 257 259 261
275 274 274 274 269 267 263 259 259 259 258 265 253 252 253 256 250 250 244 245 245 243 242 240 240 240 241 242 242 243 251 251 252 251 253 253 253 256 258 258 257 257 260
278 273 278 274 273 271 267 263 261 257 257 257 256 251 249 260 247 252 250 249 244 244 244 243 242 241 241 242 242 243 243 245 247 247 252 253 255 256 256 258 259 259 259
269 280 275 275 273 267 268 266 264 262 263 261 260 256 253 251 248 248 247 251 249 246 244 245 245 244 242 242 243 243 243 244 246 247 248 247 248 250 252 253 254 255 257
274 278 279 276 271 271 270 266 264 263 262 262 259 257 258 257 249 252 244 244 246 248 248 248 245 245 245 244 244 243 244 245 245 247 249 250 249 251 251 252 253 254 258